Skip Page Navigation
NASA JPL Caltech
NASA Logo - Jet Propulsion Laboratory + View the NASA Portal
+ Near-Earth Object (NEO) Program
Search JPL
JPL Home Earth Solar System Stars & Galaxies Technology
JPL Solar System Dynamics
BODIES ORBITS EPHEMERIDES TOOLS PHYSICAL DATA DISCOVERY FAQ SITE MAP
JPL Small-Body Database Browser
Search: [ help ]  
17501 Tetsuro (1992 FG)
Classification: Main-belt Asteroid          SPK-ID: 2017501
Ephemeris | Orbit Diagram | Orbital Elements | Physical Parameters | Discovery Circumstances ]

[ hide orbit diagram ]
Orbit Diagram
Note: Make sure you have Java enabled on your browser to see the applet. This applet is provided as a 3D orbit visualization tool. The applet was implemented using 2-body methods, and hence should not be used for determining accurate long-term trajectories (over several years or decades) or planetary encounter circumstances. For accurate long-term ephemerides, please instead use our Horizons system.
Orbit Viewer

Additional Notes: the orbits shown in the applet are color coded. The planets are white lines, and the asteroid/comet is a blue line. The bright white line indicates the portion of the orbit that is above the ecliptic plane, and the darker portion is below the ecliptic plane. Likewise for the asteroid/comet orbit, the light blue indicates the portion above the ecliptic plane, and the dark blue the portion below the ecliptic plane.

Orbit Viewer applet originally written and kindly provided by Osamu Ajiki (AstroArts), and further modified by Ron Baalke (JPL).


Orbital Elements at Epoch 2456400.5 (2013-Apr-18.0) TDB
Reference: JPL 1 (heliocentric ecliptic J2000)
 Element Value Uncertainty (1-sigma)   Units 
e .1537423632337646 6.111e-08  
a 2.264179881724708 1.863e-08 AU
q 1.916079515922005 1.389e-07 AU
i 6.155528884652208 9.6897e-06 deg
node 15.21451570788205 5.9441e-05 deg
peri 245.359166612777 7.2408e-05 deg
M 6.034156877715806 4.7334e-05 deg
tp 2456379.641699796699
(2013-Mar-28.14169980)
0.00016349 JED
period 1244.413797214815
3.41
1.5359e-05
4.205e-08
d
yr
n .2892928387693339 3.5705e-09 deg/d
Q 2.61228024752741 2.1494e-08 AU
  Orbit Determination Parameters
   # obs. used (total)      862  
   data-arc span      9678 days (26.50 yr)  
   first obs. used      1986-10-02  
   last obs. used      2013-04-01  
   planetary ephem.      DE405  
   SB-pert. ephem.      SB405-CPV-2  
   condition code      0  
   fit RMS      .54243  
   data source      ORB  
   producer      Otto Matic  
   solution date      2013-Apr-29 14:15:22  

Additional Information
 Earth MOID = .911183 AU 
 T_jup = 3.594 
[ show covariance matrix ]

Ephemeris | Orbit Diagram | Orbital Elements | Physical Parameters | Discovery Circumstances ]

Physical Parameter Table
Parameter Symbol Value Units Sigma Reference Notes
absolute magnitude H 14.1 mag n/a PDS3 (MPO 4069)  

17501 Tetsuro           Discovered 1992 Mar. 23 by K. Endate and K. Watanabe at Kitami.
Since retiring as principal of a junior high school "child astronomy club" sponsored by Kuroishi city, Tetsuro Fukushi (b. 1936) has worked as a volunteer lecturer. Since 1998 he has worked to further the spread of astronomical activities for local citizens as vice president of the Kuroishi Subaru Association.
NOTE: some special characters may not display properly (any characters within {} are an attempt to place the proper accent above a character)
Reference: 20091004/MPCPages.arcLast Updated: 2009-10-06

Alternate Designations
 1992 FG = 1986 TU18 = 1993 TF21 
Ephemeris | Orbit Diagram | Orbital Elements | Physical Parameters | Discovery Circumstances ]
ABOUT SSD CREDITS/AWARDS PRIVACY/COPYRIGHT GLOSSARY LINKS
FirstGov 2013-May-22 16:52 UT
(server date/time)  
NASA Home Page
Site Manager:   Donald K. Yeomans
Webmaster  Alan B. Chamberlin